DW6873 Weather Reports


time (UTC)temp
C
wind
direction
speed
KPH
gust
KPH
rain 1hr
cm
rain 24hr
cm
rain mn
cm
humidity
%
barometer
mb
20260502151550 12 239 0.0 3.2 0.00 0.00 0.00 45 1011.0
20260502123027 -17 0.0 0.0 0.00 0.00 0.00 1013.2
20260502121516 -17 0.0 0.0 0.00 0.00 0.00 1013.4
20260502114506 -17 0.0 0.0 0.00 0.00 0.00 1013.5
20260502113101 -17 0.0 0.0 0.00 0.00 0.00 1013.8
20260502111557 -17 0.0 0.0 0.00 0.00 0.00 1013.9
20260502110052 -17 0.0 0.0 0.00 0.00 0.00 1014.2
20260502104548 5 248 0.0 1.6 0.00 0.00 0.00 58 1014.6
20260502103048 6 254 0.0 3.2 0.00 0.00 0.00 57 1014.8
20260502101548 7 248 0.0 6.4 0.00 0.00 0.00 53 1014.7
20260502071524 7 216 0.0 1.6 0.00 0.00 0.00 53 1016.2
20260502070022 6 224 0.0 0.0 0.00 0.00 0.00 55 1016.5
20260502064520 6 203 0.0 0.0 0.00 0.00 0.00 55 1016.7
20260502063021 6 204 0.0 0.0 0.00 0.00 0.00 55 1016.8
20260502061514 6 217 0.0 0.0 0.00 0.00 0.00 54 1017.0
20260502060013 7 217 0.0 0.0 0.00 0.00 0.00 50 1017.0
20260502054513 7 224 0.0 0.0 0.00 0.00 0.00 50 1017.0
20260502053053 7 204 0.0 0.0 0.00 0.00 0.00 49 1017.2
20260502051540 8 210 0.0 1.6 0.00 0.00 0.00 48 1017.3
20260502050036 7 212 0.0 0.0 0.00 0.00 0.00 50 1017.4
20260502044534 6 203 0.0 0.0 0.00 0.00 0.00 53 1017.5
20260502043038 4 210 0.0 0.0 0.00 0.00 0.00 59 1017.6
20260502041533 4 210 0.0 0.0 0.00 0.00 0.00 58 1017.7
20260502040005 5 232 0.0 0.0 0.00 0.00 0.00 58 1017.9
20260502034502 4 155 0.0 0.0 0.00 0.00 0.00 59 1017.9
20260502033059 5 155 0.0 0.0 0.00 0.00 0.00 58 1017.8
20260502031559 4 157 0.0 0.0 0.00 0.00 0.00 58 1017.8
20260502030058 4 261 0.0 0.0 0.00 0.00 0.00 58 1017.8
20260502024606 4 261 0.0 0.0 0.00 0.00 0.00 58 1017.7
20260502023052 5 242 0.0 0.0 0.00 0.00 0.00 56 1017.7
20260502021548 5 244 0.0 0.0 0.00 0.00 0.00 54 1017.5
20260502020044 7 272 0.0 0.0 0.00 0.00 0.00 53 1017.6
20260502014540 9 233 0.0 0.0 0.00 0.00 0.00 45 1017.6
20260502013035 12 234 0.0 0.0 0.00 0.00 0.00 40 1017.5
20260502011534 14 244 0.0 0.0 0.00 0.00 0.00 35 1017.5
20260502010031 15 256 0.0 0.0 0.00 0.00 0.00 32 1017.6
20260502004529 16 285 0.0 0.0 0.00 0.00 0.00 28 1017.7
20260502003023 16 302 0.0 0.0 0.00 0.00 0.00 30 1017.8
20260502001525 16 269 0.0 0.0 0.00 0.00 0.00 29 1017.9
20260502000019 17 252 0.0 0.0 0.00 0.00 0.00 27 1018.0
20260501234516 16 330 0.0 0.0 0.00 0.00 0.00 29 1018.2
20260501233015 16 318 0.0 0.0 0.00 0.00 0.00 27 1018.3
20260501231512 16 294 0.0 0.0 0.00 0.00 0.00 30 1018.3
20260501230044 16 330 0.0 0.0 0.00 0.00 0.00 28 1018.4
20260501224547 16 291 0.0 0.0 0.00 0.00 0.00 30 1018.6
20260501223042 16 264 0.0 0.0 0.00 0.00 0.00 31 1018.6
20260501221541 15 309 0.0 0.0 0.00 0.00 0.00 32 1018.7
20260501220031 15 305 0.0 0.0 0.00 0.00 0.00 32 1018.8
20260501214529 15 57 0.0 0.0 0.00 0.00 0.00 35 1019.0
20260501213109 15 37 0.0 0.0 0.00 0.00 0.00 31 1019.1
20260501211655 14 304 0.0 0.0 0.00 0.00 0.00 35 1019.3
20260501210051 15 284 0.0 0.0 0.00 0.00 0.00 34 1019.4
20260501204550 14 295 0.0 0.0 0.00 0.00 0.00 36 1019.6
20260501203048 14 292 0.0 0.0 0.00 0.00 0.00 37 1019.7
20260501201545 14 70 0.0 0.0 0.00 0.00 0.00 34 1019.6
20260501200041 15 80 0.0 0.0 0.00 0.00 0.00 37 1019.7
20260501194541 13 356 0.0 0.0 0.00 0.00 0.00 37 1019.9
20260501193044 15 328 0.0 0.0 0.00 0.00 0.00 36 1019.9
20260501191535 13 339 0.0 0.0 0.00 0.00 0.00 39 1020.0
20260501190032 13 323 0.0 0.0 0.00 0.00 0.00 37 1020.1
20260501184531 13 58 0.0 0.0 0.00 0.00 0.00 38 1020.2
20260501183030 13 63 0.0 1.6 0.00 0.00 0.00 39 1020.3
20260501181530 13 345 0.0 0.0 0.00 0.00 0.00 39 1020.3
20260501180059 13 25 0.0 0.0 0.00 0.00 0.00 39 1020.4
20260501174553 13 58 0.0 0.0 0.00 0.00 0.00 40 1020.4
20260501173047 12 56 0.0 0.0 0.00 0.00 0.00 41 1020.6
20260501171545 12 73 0.0 0.0 0.00 0.00 0.00 39 1020.7
20260501170043 12 319 0.0 0.0 0.00 0.00 0.00 42 1020.7
20260501164540 11 34 0.0 0.0 0.00 0.00 0.00 41 1020.7
20260501163044 11 342 0.0 0.0 0.00 0.00 0.00 43 1020.8
20260501161539 11 30 0.0 0.0 0.00 0.00 0.00 42 1020.7
20260501160036 10 337 0.0 0.0 0.00 0.00 0.00 43 1020.7
20260501160033 10 341 0.0 0.0 0.00 0.00 0.00 43 1020.7
20260501154533 10 10 0.0 0.0 0.00 0.00 0.00 43 1020.7
20260501153029 10 328 0.0 0.0 0.00 0.00 0.00 44 1020.8